Canton, GA

10:32 AM EDT on October 17, 2017 (GMT -0400)
Canton

Weather History for KCNI - January, 2012

Change the Weather History Date:

Saturday, January 14, 2012

  Actual Average (KMGE) Record (KMGE)
Temperature  
Mean Temperature 38 °F -  
Max Temperature 51 °F 49 °F 74 °F (2017)
Min Temperature 26 °F 31 °F 17 °F (2011)
Degree Days  
Heating Degree Days 26    
Moisture  
Dew Point 23 °F    
Average Humidity 59    
Maximum Humidity 86    
Minimum Humidity 35    
Precipitation  
Precipitation 0.00 in - - ()
Sea Level Pressure  
Sea Level Pressure 30.18 in    
Wind  
Wind Speed 3 mph ()    
Max Wind Speed 12 mph    
Max Gust Speed 20 mph    
Visibility 10.0 miles    
Events      
Averages and records for this station are not official NWS values.
T = Trace of Precipitation, MM = Missing Value Source: Averaged Metar Reports

Daily Weather History Graph

Daily Weather History Graph

Search for Another Location

Airport or City:

Trip Planner

Search our weather history database for the weather conditions in past years. The results will help you decide how hot, cold, wet, or windy it might be!

Date:

Astronomy

Jan. 14, 2012 Rise Set
Actual Time 7:43 AM EST 5:49 PM EST
Civil Twilight 7:16 AM EST 6:16 PM EST
Nautical Twilight 6:45 AM EST 6:47 PM EST
Astronomical Twilight 6:15 AM EST 7:17 PM EST
Moon 11:49 PM EST (1/14) 10:46 AM EST (1/14)
Length of Visible Light 11h 00m
Length of Day
10h 05m
Waning Gibbous, 69% of the Moon is Illuminated
Jan 14
Waning Gibbous
Jan 16
Last Quarter
Jan 23
New
Jan 30
First Quarter
Feb 7
Full

Hourly Weather History & Observations

Time (EST) Temp. Windchill Dew Point Humidity Pressure Visibility Wind Dir Wind Speed Gust Speed Precip Events Conditions
12:15 AM 28.4 °F - 23.0 °F 80% 30.18 in 10.0 mi Calm Calm - N/A   Clear
12:35 AM 28.4 °F - 23.0 °F 80% 30.18 in 10.0 mi Calm Calm - N/A   Clear
12:55 AM 28.4 °F - 23.0 °F 80% 30.18 in 10.0 mi Calm Calm - N/A   Clear
1:15 AM 28.4 °F - 23.0 °F 80% 30.19 in 10.0 mi Calm Calm - N/A   Clear
1:35 AM 28.4 °F - 23.0 °F 80% 30.19 in 10.0 mi Calm Calm - N/A   Clear
1:55 AM 28.4 °F - 23.0 °F 80% 30.19 in 10.0 mi Calm Calm - N/A   Clear
2:15 AM 28.4 °F - 23.0 °F 80% 30.19 in 10.0 mi Calm Calm - N/A   Clear
2:35 AM 28.4 °F - 21.2 °F 74% 30.18 in 10.0 mi Calm Calm - N/A   Clear
2:55 AM 28.4 °F 24.6 °F 21.2 °F 74% 30.18 in 10.0 mi West 3.5 mph - N/A   Clear
3:15 AM 26.6 °F 22.6 °F 21.2 °F 80% 30.18 in 10.0 mi WNW 3.5 mph - N/A   Clear
3:35 AM 26.6 °F - 23.0 °F 86% 30.17 in 10.0 mi Calm Calm - N/A   Clear
3:55 AM 26.6 °F 22.6 °F 21.2 °F 80% 30.18 in 10.0 mi WNW 3.5 mph - N/A   Clear
4:15 AM 28.4 °F - 21.2 °F 74% 30.19 in 10.0 mi Calm Calm - N/A   Clear
4:35 AM 26.6 °F 21.2 °F 21.2 °F 80% 30.19 in 10.0 mi West 4.6 mph - N/A   Clear
4:55 AM 26.6 °F 22.6 °F 23.0 °F 86% 30.19 in 10.0 mi WNW 3.5 mph - N/A   Clear
5:15 AM 26.6 °F 22.6 °F 21.2 °F 80% 30.20 in 10.0 mi WNW 3.5 mph - N/A   Clear
5:35 AM 26.6 °F - 21.2 °F 80% 30.20 in 10.0 mi Calm Calm - N/A   Clear
5:55 AM 26.6 °F 22.6 °F 21.2 °F 80% 30.20 in 10.0 mi WNW 3.5 mph - N/A   Clear
6:15 AM 26.6 °F 22.6 °F 21.2 °F 80% 30.21 in 10.0 mi West 3.5 mph - N/A   Clear
6:35 AM 28.4 °F - 21.2 °F 74% 30.22 in 10.0 mi Calm Calm - N/A   Clear
6:55 AM 26.6 °F 22.6 °F 21.2 °F 80% 30.22 in 10.0 mi WNW 3.5 mph - N/A   Clear
7:15 AM 26.6 °F 22.6 °F 21.2 °F 80% 30.22 in 10.0 mi WNW 3.5 mph - N/A   Clear
7:35 AM 26.6 °F 22.6 °F 21.2 °F 80% 30.23 in 10.0 mi West 3.5 mph - N/A   Clear
7:55 AM 28.4 °F - 21.2 °F 74% 30.23 in 10.0 mi Calm Calm - N/A   Clear
8:15 AM 26.6 °F - 21.2 °F 80% 30.23 in 10.0 mi Calm Calm - N/A   Clear
8:35 AM 28.4 °F - 21.2 °F 74% 30.23 in 10.0 mi Calm Calm - N/A   Clear
8:55 AM 30.2 °F 26.7 °F 23.0 °F 75% 30.25 in 10.0 mi WSW 3.5 mph - N/A   Clear
9:15 AM 32.0 °F - 23.0 °F 69% 30.26 in 10.0 mi Calm Calm - N/A   Clear
9:35 AM 32.0 °F 27.5 °F 23.0 °F 69% 30.26 in 10.0 mi West 4.6 mph - N/A   Clear
9:55 AM 33.8 °F - 21.2 °F 60% 30.27 in 10.0 mi Calm Calm - N/A   Clear
10:15 AM 33.8 °F 30.8 °F 21.2 °F 60% 30.28 in 10.0 mi NW 3.5 mph - N/A   Clear
10:35 AM 35.6 °F 31.7 °F 21.2 °F 56% 30.27 in 10.0 mi WNW 4.6 mph - N/A   Clear
10:55 AM 37.4 °F 34.9 °F 21.2 °F 52% 30.27 in 10.0 mi WNW 3.5 mph - N/A   Clear
11:15 AM 37.4 °F 34.9 °F 21.2 °F 52% 30.26 in 10.0 mi SW 3.5 mph - N/A   Clear
11:35 AM 39.2 °F 37.0 °F 21.2 °F 49% 30.25 in 10.0 mi WNW 3.5 mph - N/A   Clear
11:55 AM 42.8 °F 39.3 °F 21.2 °F 42% 30.23 in 10.0 mi WNW 5.8 mph - N/A   Clear
12:35 PM 44.6 °F 40.7 °F 19.4 °F 37% 30.21 in 10.0 mi WSW 6.9 mph - N/A   Clear
12:55 PM 46.4 °F 42.9 °F 23.0 °F 40% 30.20 in 10.0 mi WNW 6.9 mph - N/A   Clear
1:15 PM 44.6 °F 42.2 °F 21.2 °F 39% 30.19 in 10.0 mi WSW 4.6 mph - N/A   Clear
1:35 PM 46.4 °F 42.9 °F 21.2 °F 37% 30.18 in 10.0 mi SW 6.9 mph - N/A   Clear
1:55 PM 46.4 °F 42.4 °F 23.0 °F 40% 30.16 in 10.0 mi West 8.1 mph - N/A   Clear
2:35 PM 48.2 °F - 23.0 °F 37% 30.14 in 10.0 mi WSW 6.9 mph - N/A   Clear
2:55 PM 50.0 °F - 23.0 °F 35% 30.14 in 10.0 mi SW 5.8 mph - N/A   Clear
3:15 PM 50.0 °F - 23.0 °F 35% 30.13 in 10.0 mi SW 8.1 mph 18.4 mph N/A   Clear
3:35 PM 50.0 °F - 23.0 °F 35% 30.12 in 10.0 mi SW 8.1 mph - N/A   Clear
3:55 PM 50.0 °F - 26.6 °F 40% 30.11 in 10.0 mi WNW 5.8 mph - N/A   Clear
4:15 PM 51.8 °F - 24.8 °F 35% 30.11 in 10.0 mi SSW 6.9 mph 17.3 mph N/A   Clear
4:35 PM 50.0 °F - 24.8 °F 37% 30.10 in 10.0 mi SW 9.2 mph 17.3 mph N/A   Clear
4:55 PM 51.8 °F - 26.6 °F 38% 30.09 in 10.0 mi SW 6.9 mph - N/A   Scattered Clouds
5:15 PM 50.0 °F - 24.8 °F 37% 30.08 in 10.0 mi SW 11.5 mph 19.6 mph N/A   Scattered Clouds
5:35 PM 50.0 °F - 24.8 °F 37% 30.07 in 10.0 mi SW 10.4 mph - N/A   Scattered Clouds
5:55 PM 48.2 °F - 26.6 °F 43% 30.08 in 10.0 mi SW 9.2 mph - N/A   Clear
6:15 PM 46.4 °F 42.4 °F 26.6 °F 46% 30.09 in 10.0 mi SSW 8.1 mph - N/A   Clear
6:35 PM 46.4 °F 42.4 °F 24.8 °F 43% 30.11 in 10.0 mi SW 8.1 mph - N/A   Clear
6:55 PM 46.4 °F 41.5 °F 24.8 °F 43% 30.11 in 10.0 mi SW 10.4 mph 16.1 mph N/A   Clear
7:15 PM 46.4 °F 41.9 °F 26.6 °F 46% 30.12 in 10.0 mi SSW 9.2 mph 16.1 mph N/A   Mostly Cloudy
7:35 PM 44.6 °F 39.2 °F 26.6 °F 49% 30.12 in 10.0 mi SSW 10.4 mph - N/A   Overcast
7:55 PM 44.6 °F 39.2 °F 24.8 °F 46% 30.13 in 10.0 mi SW 10.4 mph - N/A   Overcast
8:15 PM 44.6 °F 39.7 °F 24.8 °F 46% 30.13 in 10.0 mi SW 9.2 mph - N/A   Mostly Cloudy
8:35 PM 44.6 °F 40.2 °F 24.8 °F 46% 30.13 in 10.0 mi SW 8.1 mph - N/A   Scattered Clouds
8:55 PM 44.6 °F 39.2 °F 24.8 °F 46% 30.13 in 10.0 mi SW 10.4 mph 18.4 mph N/A   Scattered Clouds
9:15 PM 44.6 °F 39.7 °F 24.8 °F 46% 30.14 in 10.0 mi SW 9.2 mph 17.3 mph N/A   Mostly Cloudy
9:35 PM 42.8 °F 40.1 °F 26.6 °F 53% 30.14 in 10.0 mi WSW 4.6 mph - N/A   Mostly Cloudy
9:55 PM 42.8 °F 40.1 °F 26.6 °F 53% 30.14 in 10.0 mi WSW 4.6 mph - N/A   Scattered Clouds
10:15 PM 42.8 °F 39.3 °F 26.6 °F 53% 30.15 in 10.0 mi WSW 5.8 mph - N/A   Clear
11:15 PM 41.0 °F 38.0 °F 26.6 °F 57% 30.16 in 10.0 mi WSW 4.6 mph - N/A   Clear
11:35 PM 41.0 °F 38.0 °F 26.6 °F 57% 30.16 in 10.0 mi SW 4.6 mph - N/A   Clear
11:55 PM 41.0 °F 39.0 °F 26.6 °F 57% 30.16 in 10.0 mi WSW 3.5 mph - N/A   Clear